Date String (YYYY-MM-DD hh:mm:ss) UTC,Instrument flags,Ambient pressure (hPa),Sample flow (lpm),Bypass flow (lpm),Sample temperature (°C),Ambient temperature (°C),ASC tube jacket temperature (°C),LED temperature (°C),Box temperature (°C),Sample RH (%),Span deviation,Mass concentration (μg/m³),Mass concentration (μg/m³),Mass concentration (μg/m³)
DateTimeUTC,F1_M11,P_M11,Q1_M11,Q2_M11,T1_M11,T2_M11,T3_M11,T4_M11,T5_M11,U1_M11,ZSPAN_M11,X0_M11,X2_M11,X1_M11
2022-12-18 21:00:00,,0819.0,4.96,0.00,22.7,21.0,00.0,31.7,24.5,06.7,0000.0,0009.98,0003.75,0003.16
2022-12-18 21:01:00,,0819.0,5.03,0.00,22.7,21.0,00.0,31.7,24.4,06.7,0000.0,0009.83,0003.74,0003.17
2022-12-18 21:02:00,,0819.0,5.01,0.00,22.7,21.0,00.0,31.7,24.4,06.7,0000.0,0009.21,0003.75,0003.16
2022-12-18 21:03:00,,0818.9,4.98,0.00,22.7,21.0,00.0,31.7,24.4,06.7,0000.0,0009.73,0003.72,0003.15
2022-12-18 21:04:00,,0818.9,5.04,0.00,22.6,21.0,00.0,31.7,24.4,06.6,0000.0,0009.80,0003.73,0003.15
2022-12-18 21:05:00,,0818.9,4.95,0.00,22.6,21.0,00.0,31.7,24.4,06.6,0000.0,0009.39,0003.77,0003.17
2022-12-18 21:06:00,,0818.9,5.03,0.00,22.6,21.1,00.0,31.6,24.4,06.6,0000.0,0008.99,0003.82,0003.19
2022-12-18 21:07:00,,0818.9,5.02,0.00,22.6,21.2,00.0,31.6,24.4,06.6,0000.0,0009.07,0003.84,0003.19
2022-12-18 21:08:00,,0818.9,4.96,0.00,22.7,21.2,00.0,31.6,24.5,06.6,0000.0,0009.10,0003.85,0003.20
2022-12-18 21:09:00,,0818.9,5.03,0.00,22.7,21.2,00.0,31.6,24.5,06.5,0000.0,0008.81,0003.81,0003.20
2022-12-18 21:10:00,,0818.9,4.97,0.00,22.7,21.2,00.0,31.6,24.5,06.5,0000.0,0008.81,0003.79,0003.21
2022-12-18 21:11:00,,0818.9,5.01,0.00,22.6,21.2,00.0,31.6,24.4,06.4,0000.0,0008.74,0003.81,0003.21
2022-12-18 21:12:00,,0818.9,5.04,0.00,22.6,21.2,00.0,31.6,24.5,06.4,0000.0,0008.79,0003.82,0003.21
2022-12-18 21:13:00,,0818.9,4.97,0.00,22.7,21.3,00.0,31.6,24.5,06.4,0000.0,0008.78,0003.82,0003.21
2022-12-18 21:14:00,,0818.9,5.04,0.00,22.7,21.4,00.0,31.6,24.5,06.4,0000.0,0008.13,0003.84,0003.21
2022-12-18 21:15:00,,0818.9,4.96,0.00,22.7,21.4,00.0,31.6,24.6,06.3,0000.0,0008.21,0003.83,0003.21
2022-12-18 21:16:00,,0818.9,5.02,0.00,22.7,21.4,00.0,31.6,24.6,06.3,0000.0,0009.45,0003.82,0003.19
2022-12-18 21:17:00,,0818.9,4.96,0.00,22.7,21.4,00.0,31.6,24.6,06.2,0000.0,0009.72,0003.82,0003.18
2022-12-18 21:18:00,,0818.9,5.02,0.00,22.7,21.4,00.0,31.6,24.6,06.2,0000.0,0010.10,0003.77,0003.17
2022-12-18 21:19:00,,0819.0,5.01,0.00,22.7,21.5,00.0,31.6,24.6,06.2,0000.0,0010.00,0003.73,0003.16
2022-12-18 21:20:00,,0818.9,4.97,0.00,22.8,21.5,00.0,31.6,24.6,06.2,0000.0,0009.91,0003.74,0003.14
2022-12-18 21:21:00,,0819.0,5.04,0.00,22.8,21.6,00.0,31.6,24.6,06.2,0000.0,0009.97,0003.71,0003.13
2022-12-18 21:22:00,,0818.9,4.95,0.00,22.8,21.6,00.0,31.6,24.7,06.1,0000.0,0010.26,0003.68,0003.11
2022-12-18 21:23:00,,0818.9,5.03,0.00,22.8,21.6,00.0,31.6,24.7,06.0,0000.0,0010.59,0003.63,0003.07
2022-12-18 21:24:00,,0818.9,5.00,0.00,22.8,21.7,00.0,31.6,24.7,06.0,0000.0,0010.61,0003.61,0003.05
2022-12-18 21:25:00,,0818.9,4.96,0.00,22.9,21.7,00.0,31.6,24.7,06.0,0000.0,0010.45,0003.57,0003.03
2022-12-18 21:26:00,,0818.9,5.03,0.00,22.9,21.7,00.0,31.6,24.7,06.0,0000.0,0010.26,0003.57,0003.02
2022-12-18 21:27:00,,0818.9,4.99,0.00,22.9,21.8,00.0,31.6,24.8,06.0,0000.0,0009.52,0003.52,0002.99
2022-12-18 21:28:00,,0818.9,5.00,0.00,22.9,21.8,00.0,31.6,24.8,06.0,0000.0,0009.86,0003.47,0002.96
2022-12-18 21:29:00,,0818.9,5.03,0.00,22.9,21.8,00.0,31.7,24.8,06.0,0000.0,0009.59,0003.49,0002.96
2022-12-18 21:30:00,,0818.9,4.96,0.00,23.0,21.9,00.0,31.7,24.8,06.0,0000.0,0009.68,0003.50,0002.95
2022-12-18 21:31:00,,0819.0,5.03,0.00,23.0,21.9,00.0,31.7,24.9,06.0,0000.0,0009.75,0003.48,0002.95
2022-12-18 21:32:00,,0818.9,5.00,0.00,23.0,21.9,00.0,31.7,24.9,06.1,0000.0,0009.55,0003.47,0002.95
2022-12-18 21:33:00,,0818.9,4.96,0.00,23.0,21.9,00.0,31.7,24.9,06.0,0000.0,0009.65,0003.46,0002.96
2022-12-18 21:34:00,,0818.9,5.03,0.00,23.1,21.9,00.0,31.7,24.9,06.0,0000.0,0009.79,0003.47,0002.98
2022-12-18 21:35:00,,0818.9,5.02,0.00,23.1,21.9,00.0,31.8,24.9,06.0,0000.0,0009.75,0003.47,0002.99
2022-12-18 21:36:00,,0819.0,4.96,0.00,23.1,21.9,00.0,31.8,24.9,06.0,0000.0,0010.53,0003.49,0002.99
2022-12-18 21:37:00,,0818.9,5.04,0.00,23.1,21.9,00.0,31.8,24.9,06.0,0000.0,0010.51,0003.48,0002.98
2022-12-18 21:38:00,,0818.9,4.96,0.00,23.1,21.9,00.0,31.8,24.9,06.0,0000.0,0009.86,0003.46,0002.97
2022-12-18 21:39:00,,0818.9,5.03,0.00,23.1,22.0,00.0,31.8,24.9,06.1,0000.0,0009.26,0003.47,0002.95
2022-12-18 21:40:00,,0819.0,5.03,0.00,23.1,22.0,00.0,31.8,24.9,06.1,0000.0,0009.43,0003.48,0002.94
2022-12-18 21:41:00,,0818.9,4.95,0.00,23.1,22.0,00.0,31.9,25.0,06.1,0000.0,0009.43,0003.44,0002.93
2022-12-18 21:42:00,,0818.9,5.02,0.00,23.2,22.0,00.0,31.9,25.0,06.1,0000.0,0009.20,0003.41,0002.90
2022-12-18 21:43:00,,0818.9,5.02,0.00,23.2,22.0,00.0,31.9,25.0,06.2,0000.0,0009.14,0003.42,0002.89
2022-12-18 21:44:00,,0819.0,4.95,0.00,23.2,22.0,00.0,31.9,25.0,06.1,0000.0,0008.68,0003.40,0002.86
2022-12-18 21:45:00,,0818.9,5.04,0.00,23.2,22.0,00.0,31.9,25.0,06.0,0000.0,0008.41,0003.39,0002.83
2022-12-18 21:46:00,,0819.0,4.99,0.00,23.2,22.0,00.0,31.9,25.0,06.0,0000.0,0008.37,0003.38,0002.80
2022-12-18 21:47:00,,0819.0,4.99,0.00,23.2,22.0,00.0,31.9,25.0,06.0,0000.0,0007.83,0003.37,0002.79
2022-12-18 21:48:00,,0819.0,5.03,0.00,23.2,22.1,00.0,31.9,25.1,05.9,0000.0,0008.11,0003.36,0002.75
2022-12-18 21:49:00,,0819.0,4.95,0.00,23.2,22.1,00.0,32.0,25.0,05.9,0000.0,0008.16,0003.37,0002.73
2022-12-18 21:50:00,,0819.0,5.03,0.00,23.2,22.1,00.0,32.0,25.0,05.9,0000.0,0007.82,0003.33,0002.71
2022-12-18 21:51:00,,0819.0,4.99,0.00,23.3,22.1,00.0,32.0,25.0,05.9,0000.0,0007.29,0003.28,0002.68
2022-12-18 21:52:00,,0818.9,5.01,0.00,23.3,22.1,00.0,32.0,25.0,05.9,0000.0,0006.98,0003.26,0002.66
2022-12-18 21:53:00,,0819.0,5.02,0.00,23.3,22.1,00.0,32.0,25.0,05.8,0000.0,0006.88,0003.23,0002.61
2022-12-18 21:54:00,,0819.0,4.96,0.00,23.3,22.2,00.0,32.0,25.1,05.8,0000.0,0007.00,0003.23,0002.57
2022-12-18 21:55:00,,0819.0,5.03,0.00,23.3,22.2,00.0,32.0,25.1,05.7,0000.0,0007.00,0003.22,0002.53
2022-12-18 21:56:00,,0819.0,4.96,0.00,23.3,22.2,00.0,32.0,25.1,05.8,0000.0,0006.40,0003.21,0002.51
2022-12-18 21:57:00,,0819.0,5.03,0.00,23.3,22.2,00.0,32.1,25.1,05.8,0000.0,0006.87,0003.22,0002.48
2022-12-18 21:58:00,,0819.0,5.00,0.00,23.4,22.2,00.0,32.1,25.1,05.8,0000.0,0006.71,0003.23,0002.45
2022-12-18 21:59:00,,0819.0,5.00,0.00,23.4,22.2,00.0,32.1,25.1,05.6,0000.0,0006.10,0003.21,0002.43
